• In Czech Republic
  • List of Countries
  • For 7 days
  • Water Temperature
  • Satellite Maps
  • Weather Map
  • Weather Widgets
  • user-avatar
    Login

    Hourly Weather Pontypool

    Today, 16 December, Saturday

    Time Temperature Precipitation Wind Pressure Humidity
    00:00 0°C° 0 mm 3 mps 745 mmHg 85%
    01:00 0°C° 0 mm 3 mps 746 mmHg 86%
    02:00 -1°C° 0 mm 4 mps 746 mmHg 86%
    03:00 -1°C° 0 mm 4 mps 746 mmHg 87%
    04:00 -1°C° 0 mm 4 mps 747 mmHg 87%
    05:00 -1°C° 0 mm 4 mps 747 mmHg 87%
    06:00 0°C° 0 mm 4 mps 747 mmHg 87%
    07:00 0°C° 0 mm 4 mps 748 mmHg 87%
    08:00 0°C° 0 mm 4 mps 748 mmHg 87%
    09:00 0°C° 0 mm 4 mps 749 mmHg 87%
    10:00 +1°C° 0.1 mm 5 mps 749 mmHg 84%
    11:00 +2°C° 0.1 mm 6 mps 749 mmHg 81%
    12:00 +4°C° 0.1 mm 6 mps 749 mmHg 78%
    13:00 +4°C° 0 mm 6 mps 749 mmHg 79%
    14:00 +4°C° 0 mm 6 mps 749 mmHg 81%
    15:00 +4°C° 0 mm 6 mps 749 mmHg 83%
    16:00 +3°C° 0 mm 5 mps 750 mmHg 85%
    17:00 +2°C° 0 mm 5 mps 750 mmHg 87%
    18:00 +3°C° 0 mm 4 mps 751 mmHg 89%
    19:00 +1°C° 0 mm 4 mps 751 mmHg 89%
    20:00 +1°C° 0 mm 4 mps 752 mmHg 89%
    21:00 +2°C° 0 mm 3 mps 752 mmHg 89%
    22:00 +2°C° 0 mm 3 mps 752 mmHg 90%
    23:00 +1°C° 0 mm 3 mps 753 mmHg 90%

    Tomorrow, 17 December, Sunday

    Time Temperature Precipitation Wind Pressure Humidity
    00:00 +2°C° 0 mm 2 mps 753 mmHg 90%
    01:00 +2°C° 0 mm 2 mps 753 mmHg 91%
    02:00 +2°C° 0 mm 2 mps 753 mmHg 92%
    03:00 +2°C° 0 mm 2 mps 753 mmHg 92%
    04:00 +3°C° 0 mm 2 mps 753 mmHg 92%
    05:00 +3°C° 0 mm 2 mps 753 mmHg 93%
    06:00 +3°C° 0 mm 2 mps 753 mmHg 93%
    07:00 +3°C° 0 mm 3 mps 753 mmHg 93%
    08:00 +3°C° 0 mm 3 mps 753 mmHg 93%
    09:00 +4°C° 0 mm 4 mps 753 mmHg 93%
    10:00 +5°C° 0 mm 5 mps 753 mmHg 92%
    11:00 +5°C° 0 mm 6 mps 753 mmHg 90%
    12:00 +8°C° 0 mm 7 mps 753 mmHg 88%
    13:00 +8°C° 0.1 mm 7 mps 752 mmHg 88%
    14:00 +8°C° 0.1 mm 7 mps 752 mmHg 89%
    15:00 +8°C° 0.1 mm 7 mps 752 mmHg 89%
    16:00 +8°C° 0 mm 7 mps 752 mmHg 90%
    17:00 +8°C° 0 mm 6 mps 752 mmHg 92%
    18:00 +8°C° 0 mm 6 mps 752 mmHg 93%
    19:00 +8°C° 0 mm 6 mps 752 mmHg 94%
    20:00 +9°C° 0 mm 5 mps 753 mmHg 95%
    21:00 +9°C° 0 mm 5 mps 753 mmHg 95%
    22:00 +8°C° 0 mm 4 mps 753 mmHg 95%
    23:00 +8°C° 0 mm 4 mps 754 mmHg 95%

    Day after tomorrow, 18 December, Monday

    Time Temperature Precipitation Wind Pressure Humidity
    00:00 +8°C° 0 mm 3 mps 754 mmHg 95%
    01:00 +8°C° 0 mm 3 mps 754 mmHg 95%
    02:00 +7°C° 0 mm 3 mps 754 mmHg 95%
    03:00 +6°C° 0 mm 2 mps 755 mmHg 95%
    04:00 +6°C° 0 mm 2 mps 755 mmHg 94%
    05:00 +5°C° 0 mm 2 mps 755 mmHg 93%
    06:00 +6°C° 0 mm 1 mps 755 mmHg 93%
    07:00 +5°C° 0 mm 1 mps 756 mmHg 92%
    08:00 +5°C° 0 mm 1 mps 756 mmHg 91%
    09:00 +5°C° 0 mm 1 mps 757 mmHg 90%
    10:00 +6°C° 0 mm 1 mps 757 mmHg 87%
    11:00 +8°C° 0 mm 1 mps 757 mmHg 83%
    12:00 +9°C° 0 mm 1 mps 758 mmHg 79%
    13:00 +8°C° 0 mm 1 mps 758 mmHg 81%
    14:00 +8°C° 0 mm 1 mps 758 mmHg 83%
    15:00 +8°C° 0 mm 1 mps 758 mmHg 85%
    16:00 +8°C° 0 mm 1 mps 758 mmHg 87%
    17:00 +6°C° 0 mm 2 mps 758 mmHg 88%
    18:00 +6°C° 0 mm 2 mps 758 mmHg 90%
    19:00 +6°C° 0 mm 2 mps 758 mmHg 90%
    20:00 +6°C° 0 mm 2 mps 759 mmHg 91%
    21:00 +6°C° 0 mm 2 mps 759 mmHg 91%
    22:00 +7°C° 0 mm 2 mps 759 mmHg 92%
    23:00 +7°C° 0 mm 3 mps 759 mmHg 92%

    19 December, Tuesday

    Time Temperature Precipitation Wind Pressure Humidity
    00:00 +7°C° 0 mm 3 mps 759 mmHg 93%
    01:00 +7°C° 0 mm 3 mps 759 mmHg 93%
    02:00 +7°C° 0 mm 3 mps 759 mmHg 94%
    03:00 +8°C° 0 mm 3 mps 759 mmHg 95%
    04:00 +8°C° 0 mm 3 mps 759 mmHg 95%
    05:00 +8°C° 0 mm 3 mps 759 mmHg 96%
    06:00 +8°C° 0 mm 3 mps 760 mmHg 97%
    07:00 +9°C° 0 mm 3 mps 760 mmHg 97%
    08:00 +9°C° 0 mm 3 mps 760 mmHg 97%
    09:00 +9°C° 0 mm 3 mps 761 mmHg 98%
    10:00 +10°C° 0 mm 3 mps 761 mmHg 97%
    11:00 +11°C° 0 mm 3 mps 761 mmHg 96%
    12:00 +11°C° 0 mm 3 mps 761 mmHg 96%
    13:00 +11°C° 0 mm 3 mps 761 mmHg 96%
    14:00 +11°C° 0 mm 3 mps 760 mmHg 96%
    15:00 +11°C° 0 mm 3 mps 760 mmHg 96%
    16:00 +11°C° 0 mm 3 mps 760 mmHg 96%
    17:00 +11°C° 0 mm 3 mps 760 mmHg 97%
    18:00 +11°C° 0 mm 3 mps 761 mmHg 97%
    19:00 +11°C° 0 mm 3 mps 761 mmHg 97%
    20:00 +11°C° 0 mm 3 mps 761 mmHg 97%
    21:00 +11°C° 0 mm 4 mps 761 mmHg 96%
    22:00 +11°C° 0 mm 4 mps 761 mmHg 96%
    23:00 +11°C° 0 mm 4 mps 761 mmHg 96%

    20 December, Wednesday

    Time Temperature Precipitation Wind Pressure Humidity
    00:00 +11°C° 0 mm 4 mps 761 mmHg 95%
    01:00 +10°C° 0 mm 4 mps 761 mmHg 95%
    02:00 +10°C° 0 mm 3 mps 761 mmHg 95%
    03:00 +10°C° 0 mm 3 mps 761 mmHg 95%
    04:00 +10°C° 0 mm 3 mps 762 mmHg 96%
    05:00 +10°C° 0 mm 3 mps 762 mmHg 96%
    06:00 +10°C° 0 mm 3 mps 762 mmHg 96%
    07:00 +10°C° 0 mm 3 mps 762 mmHg 97%
    08:00 +10°C° 0 mm 3 mps 762 mmHg 97%
    09:00 +10°C° 0 mm 3 mps 763 mmHg 97%
    10:00 +10°C° 0 mm 3 mps 763 mmHg 95%
    11:00 +11°C° 0 mm 3 mps 763 mmHg 94%
    12:00 +12°C° 0 mm 4 mps 763 mmHg 92%
    13:00 +11°C° 0 mm 4 mps 762 mmHg 92%
    14:00 +11°C° 0 mm 4 mps 762 mmHg 92%
    15:00 +11°C° 0 mm 4 mps 762 mmHg 91%
    16:00 +10°C° 0 mm 4 mps 762 mmHg 92%
    17:00 +10°C° 0 mm 4 mps 762 mmHg 93%
    18:00 +8°C° 0 mm 4 mps 762 mmHg 94%
    19:00 +8°C° 0 mm 5 mps 762 mmHg 94%
    20:00 +8°C° 0 mm 5 mps 762 mmHg 93%
    21:00 +8°C° 0 mm 5 mps 762 mmHg 92%
    22:00 +8°C° 0 mm 6 mps 762 mmHg 91%
    23:00 +8°C° 0 mm 6 mps 762 mmHg 91%

    21 December, Thursday

    Time Temperature Precipitation Wind Pressure Humidity
    00:00 +8°C° 0 mm 7 mps 762 mmHg 90%
    01:00 +8°C° 0 mm 7 mps 762 mmHg 90%
    02:00 +8°C° 0 mm 7 mps 762 mmHg 91%
    03:00 +8°C° 0 mm 7 mps 761 mmHg 92%
    04:00 +9°C° 0 mm 7 mps 762 mmHg 92%
    05:00 +9°C° 0 mm 7 mps 762 mmHg 92%
    06:00 +9°C° 0 mm 6 mps 762 mmHg 92%
    07:00 +9°C° 0 mm 6 mps 762 mmHg 93%
    08:00 +9°C° 0 mm 5 mps 762 mmHg 94%
    09:00 +9°C° 0 mm 5 mps 763 mmHg 94%
    10:00 +11°C° 0.1 mm 4 mps 763 mmHg 93%
    11:00 +11°C° 0.1 mm 3 mps 763 mmHg 92%
    12:00 +11°C° 0.1 mm 3 mps 764 mmHg 91%
    13:00 +11°C° 0 mm 3 mps 763 mmHg 92%
    14:00 +12°C° 0 mm 2 mps 763 mmHg 92%
    15:00 +10°C° 0 mm 2 mps 763 mmHg 93%
    16:00 +10°C° 0 mm 2 mps 763 mmHg 94%
    17:00 +9°C° 0 mm 2 mps 763 mmHg 94%
    18:00 +10°C° 0 mm 1 mps 764 mmHg 95%
    19:00 +9°C° 0.3 mm 2 mps 763 mmHg 95%
    20:00 +9°C° 0.3 mm 2 mps 763 mmHg 95%
    21:00 +9°C° 0.3 mm 2 mps 763 mmHg 95%
    22:00 +9°C° 0.5 mm 2 mps 763 mmHg 96%
    23:00 +9°C° 0.5 mm 3 mps 762 mmHg 96%
    Show more